Regional Weather Roundup
Issued by NWS Little Rock, AR

Home | Current Version | Previous Version | Graphics & Text | Print | Product List | Glossary On
Versions: 1 2 3 4 5 6 7 8 9 10 11 12 13 14 15 16 17 18 19 20 21 22 23 24 25 26 27
000
ASUS44 KLZK 242205
RWRLZK

WEATHER ROUNDUP FOR ARKANSAS
NATIONAL WEATHER SERVICE LITTLE ROCK AR
500 PM CDT FRI OCT 24 2014

NOTE: "FAIR" INDICATES FEW OR NO CLOUDS BELOW 12,000 FEET WITH NO
SIGNIFICANT WEATHER AND/OR OBSTRUCTIONS TO VISIBILITY.

ARZ001-003-010-029-242300-
NORTHWEST ARKANSAS

CITY           SKY/WX    TMP DP  RH WIND       PRES   REMARKS
FAYETTEVILLE   PTSUNNY   70  61  73 S8        30.08S
FORT SMITH     CLOUDY    76  59  55 SW7       30.06F
HARRISON       PTSUNNY   76  60  57 W3        30.07S HAZE
BENTONVILLE    PTSUNNY   72  59  64 SW6       30.08S
ROGERS         PTSUNNY   72  60  66 S6        30.09S
SILOAM SPGS    CLOUDY    72  57  60 S9        30.09R
HIGHFILL       PTSUNNY   72  61  68 S7        30.07S
SPRINGDALE     PTSUNNY   72  61  68 SW5       30.10S
$$

ARZ004-005-016-242300-
NORTH CENTRAL ARKANSAS

CITY           SKY/WX    TMP DP  RH WIND       PRES   REMARKS
BATESVILLE     SUNNY     73  59  60 SW3       30.07F
FLIPPIN        MOSUNNY   73  57  56 E3        30.07S
MTN HOME       MOSUNNY   71  59  65 S5        30.06F
$$

ARZ040-041-242300-
WEST CENTRAL ARKANSAS

CITY           SKY/WX    TMP DP  RH WIND       PRES   REMARKS
MENA           CLOUDY    75  63  64 CALM      30.11S
MOUNT IDA      PTSUNNY   75  62  64 CALM      30.08R
$$

ARZ009-017-025-026-028-242300-
NORTHEAST ARKANSAS

CITY           SKY/WX    TMP DP  RH WIND       PRES   REMARKS
CORNING        FAIR      73  57  56 CALM      30.07S
JONESBORO      SUNNY     73  55  53 W3        30.07F
NEWPORT        SUNNY     76  56  49 SW3       30.08S
WALNUT RIDGE   SUNNY     73  55  53 S3        30.06F
BLYTHEVILLE    SUNNY     74  56  53 NW7       30.07S
$$

ARZ022-023-033-042-044-242300-
CENTRAL ARKANSAS

CITY           SKY/WX    TMP DP  RH WIND       PRES   REMARKS
LITTLE ROCK    PTSUNNY   76  53  44 S6        30.08F
N LITTLE ROCK  PTSUNNY   75  58  56 SW3       30.08F
JACKSONVILLE   MOSUNNY   76  56  50 W2        30.08S HAZE
SEARCY         SUNNY     75  57  53 S5        30.09S
HOT SPRINGS    MOSUNNY   75  57  53 SW5       30.10R
RUSSELLVILLE   SUNNY     75  59  57 CALM      30.07F
$$

ARZ036-242300-
EAST ARKANSAS

CITY           SKY/WX    TMP DP  RH WIND       PRES   REMARKS
WEST MEMPHIS   SUNNY     74  57  55 VRB7      30.06S
$$

ARZ050-053-066-070-073-242300-
SOUTHWEST ARKANSAS

CITY           SKY/WX    TMP DP  RH WIND       PRES   REMARKS
ARKADELPHIA    FAIR      76  59  55 SW3       30.10S
CAMDEN         SUNNY     77  52  41 NE3       30.10S
TEXARKANA      MOSUNNY   76  57  51 CALM      30.10S
EL DORADO      SUNNY     74  55  51 SW3       30.11S
DE QUEEN       CLOUDY    74  60  61 SW3       30.08S
$$

ARZ056-057-069-242300-
SOUTHEAST ARKANSAS

CITY           SKY/WX    TMP DP  RH WIND       PRES   REMARKS
PINE BLUFF     SUNNY     73  55  53 SW7       30.09F
STUTTGART      SUNNY     75  54  46 W6        30.10S
MONTICELLO     SUNNY     74  55  51 NW5       30.10S

$$





USA.gov is the U.S. government's official web portal to all federal, state and local government web resources and services.